| time (UTC) | temp C | wind direction | speed KPH | gust KPH | rain 1hr cm | rain 24hr cm | rain mn cm | humidity % | barometer mb |
| 20260906100039 | 12 | 360 | 27.4 | 37.0 | 0.00 | 0.00 | 0.00 | 93 | 1019.2 |
| 20260906094536 | 11 | 11 | 24.1 | 38.6 | 0.00 | 0.00 | 0.00 | 93 | 1019.2 |
| 20260906093038 | 11 | 17 | 30.6 | 38.6 | 0.00 | 0.00 | 0.00 | 93 | 1019.2 |
| 20260906091535 | 11 | 13 | 32.2 | 41.8 | 0.00 | 0.00 | 0.00 | 93 | 1019.2 |
| 20260906090035 | 12 | 14 | 32.2 | 40.2 | 0.00 | 0.00 | 0.00 | 92 | 1019.5 |
| 20260906084538 | 11 | 13 | 30.6 | 40.2 | 0.00 | 0.00 | 0.00 | 92 | 1019.6 |
| 20260906083038 | 12 | 16 | 25.7 | 38.6 | 0.00 | 0.00 | 0.00 | 91 | 1019.6 |
| 20260906081536 | 12 | 5 | 32.2 | 40.2 | 0.00 | 0.00 | 0.00 | 90 | 1019.6 |
| 20260906080034 | 12 | 18 | 27.4 | 40.2 | 0.00 | 0.00 | 0.00 | 89 | 1019.8 |
| 20260906074537 | 12 | 28 | 30.6 | 43.5 | 0.00 | 0.00 | 0.00 | 89 | 1019.9 |
| 20260906073037 | 12 | 23 | 29.0 | 41.8 | 0.00 | 0.00 | 0.00 | 88 | 1020.2 |
| 20260906071535 | 12 | 26 | 30.6 | 40.2 | 0.00 | 0.00 | 0.00 | 88 | 1020.2 |
| 20260906070035 | 12 | 12 | 29.0 | 38.6 | 0.00 | 0.00 | 0.00 | 87 | 1020.2 |
| 20260906064535 | 13 | 14 | 29.0 | 37.0 | 0.00 | 0.00 | 0.00 | 86 | 1020.6 |
| 20260906063033 | 12 | 10 | 24.1 | 33.8 | 0.00 | 0.00 | 0.00 | 87 | 1020.6 |
| 20260906061538 | 13 | 18 | 29.0 | 38.6 | 0.00 | 0.00 | 0.00 | 86 | 1020.7 |
| 20260906060038 | 13 | 25 | 27.4 | 38.6 | 0.00 | 0.00 | 0.00 | 85 | 1020.6 |
| 20260906054552 | 13 | 24 | 30.6 | 38.6 | 0.00 | 0.00 | 0.00 | 85 | 1020.6 |
| 20260906053034 | 13 | 28 | 30.6 | 46.7 | 0.00 | 0.00 | 0.00 | 85 | 1020.3 |
| 20260906051556 | 13 | 22 | 35.4 | 45.1 | 0.00 | 0.00 | 0.00 | 85 | 1020.4 |
| 20260906050037 | 13 | 19 | 30.6 | 46.7 | 0.00 | 0.00 | 0.00 | 84 | 1020.6 |
| 20260906044533 | 13 | 15 | 30.6 | 43.5 | 0.00 | 0.00 | 0.00 | 83 | 1020.6 |
| 20260906043035 | 13 | 28 | 32.2 | 43.5 | 0.00 | 0.00 | 0.00 | 82 | 1019.9 |
| 20260906041535 | 13 | 10 | 35.4 | 49.9 | 0.00 | 0.00 | 0.00 | 80 | 1019.5 |
| 20260906040103 | 14 | 34 | 35.4 | 46.7 | 0.00 | 0.00 | 0.00 | 79 | 1019.9 |
| 20260906034534 | 14 | 15 | 38.6 | 48.3 | 0.00 | 0.00 | 0.00 | 75 | 1020.1 |
| 20260906033051 | 15 | 15 | 32.2 | 46.7 | 0.00 | 0.00 | 0.00 | 73 | 1020.3 |
| 20260906031536 | 15 | 13 | 38.6 | 48.3 | 0.00 | 0.00 | 0.00 | 74 | 1019.7 |
| 20260906030036 | 14 | 17 | 37.0 | 45.1 | 0.00 | 0.00 | 0.00 | 74 | 1019.2 |
| 20260906024534 | 15 | 24 | 32.2 | 45.1 | 0.00 | 0.00 | 0.00 | 72 | 1019.0 |
| 20260906023035 | 15 | 15 | 33.8 | 43.5 | 0.00 | 0.00 | 0.00 | 71 | 1018.8 |
| 20260906021535 | 15 | 22 | 35.4 | 45.1 | 0.00 | 0.00 | 0.00 | 70 | 1018.8 |
| 20260906020036 | 15 | 19 | 35.4 | 46.7 | 0.00 | 0.00 | 0.00 | 70 | 1018.8 |
| 20260906014535 | 16 | 19 | 35.4 | 45.1 | 0.00 | 0.00 | 0.00 | 68 | 1018.8 |
| 20260906013035 | 16 | 21 | 30.6 | 40.2 | 0.00 | 0.00 | 0.00 | 66 | 1018.7 |
| 20260906011535 | 17 | 15 | 25.7 | 40.2 | 0.00 | 0.00 | 0.00 | 63 | 1018.7 |
| 20260906010036 | 17 | 21 | 30.6 | 41.8 | 0.00 | 0.00 | 0.00 | 62 | 1018.7 |
| 20260906004537 | 18 | 29 | 32.2 | 43.5 | 0.00 | 0.00 | 0.00 | 59 | 1018.7 |
| 20260906003034 | 19 | 17 | 29.0 | 41.8 | 0.00 | 0.00 | 0.00 | 57 | 1018.8 |
| 20260906001534 | 19 | 15 | 32.2 | 40.2 | 0.00 | 0.00 | 0.00 | 56 | 1018.7 |
| 20260906000039 | 20 | 15 | 27.4 | 40.2 | 0.00 | 0.00 | 0.00 | 54 | 1018.8 |
| 20260905234537 | 20 | 5 | 27.4 | 38.6 | 0.00 | 0.00 | 0.00 | 52 | 1019.0 |
| 20260905233033 | 21 | 46 | 22.5 | 35.4 | 0.00 | 0.00 | 0.00 | 47 | 1018.9 |
| 20260905231538 | 21 | 15 | 25.7 | 37.0 | 0.00 | 0.00 | 0.00 | 48 | 1018.8 |
| 20260905230036 | 21 | 23 | 27.4 | 37.0 | 0.00 | 0.00 | 0.00 | 47 | 1018.7 |
| 20260905224607 | 21 | 9 | 29.0 | 40.2 | 0.00 | 0.00 | 0.00 | 47 | 1018.6 |
| 20260905223043 | 22 | 20 | 16.1 | 30.6 | 0.00 | 0.00 | 0.00 | 43 | 1018.6 |
| 20260905221537 | 22 | 32 | 16.1 | 29.0 | 0.00 | 0.00 | 0.00 | 43 | 1018.8 |
| 20260905220033 | 22 | 43 | 24.1 | 32.2 | 0.00 | 0.00 | 0.00 | 43 | 1018.8 |
| 20260905214538 | 22 | 44 | 12.9 | 17.7 | 0.00 | 0.00 | 0.00 | 41 | 1018.9 |
| 20260905213041 | 22 | 12 | 4.8 | 12.9 | 0.00 | 0.00 | 0.00 | 43 | 1019.1 |
| 20260905211542 | 22 | 342 | 11.3 | 17.7 | 0.00 | 0.00 | 0.00 | 41 | 1019.3 |
| 20260905210047 | 21 | 302 | 12.9 | 22.5 | 0.00 | 0.00 | 0.00 | 40 | 1019.1 |
| 20260905204539 | 21 | 300 | 8.0 | 20.9 | 0.00 | 0.00 | 0.00 | 40 | 1019.2 |
| 20260905203038 | 21 | 305 | 14.5 | 25.7 | 0.00 | 0.00 | 0.00 | 39 | 1019.4 |
| 20260905201535 | 21 | 44 | 14.5 | 22.5 | 0.00 | 0.00 | 0.00 | 40 | 1019.5 |
| 20260905200036 | 20 | 329 | 14.5 | 29.0 | 0.00 | 0.00 | 0.00 | 42 | 1019.7 |
| 20260905194541 | 20 | 355 | 17.7 | 27.4 | 0.00 | 0.00 | 0.00 | 43 | 1019.7 |
| 20260905193037 | 20 | 340 | 14.5 | 30.6 | 0.00 | 0.00 | 0.00 | 43 | 1019.6 |
| 20260905191536 | 20 | 313 | 12.9 | 30.6 | 0.00 | 0.00 | 0.00 | 43 | 1019.9 |
| 20260905190035 | 20 | 300 | 8.0 | 24.1 | 0.00 | 0.00 | 0.00 | 44 | 1020.2 |
| 20260905184547 | 20 | 344 | 16.1 | 24.1 | 0.00 | 0.00 | 0.00 | 44 | 1020.2 |
| 20260905183034 | 19 | 315 | 9.7 | 20.9 | 0.00 | 0.00 | 0.00 | 48 | 1020.4 |
| 20260905181535 | 19 | 265 | 11.3 | 17.7 | 0.00 | 0.00 | 0.00 | 49 | 1020.3 |
| 20260905180041 | 18 | 289 | 14.5 | 19.3 | 0.00 | 0.00 | 0.00 | 51 | 1020.5 |
| 20260905174537 | 18 | 281 | 9.7 | 22.5 | 0.00 | 0.00 | 0.00 | 54 | 1020.3 |
| 20260905173041 | 18 | 322 | 11.3 | 22.5 | 0.00 | 0.00 | 0.00 | 56 | 1020.3 |
| 20260905171535 | 18 | 329 | 11.3 | 20.9 | 0.00 | 0.00 | 0.00 | 57 | 1020.3 |
| 20260905170033 | 17 | 311 | 6.4 | 17.7 | 0.00 | 0.00 | 0.00 | 58 | 1020.4 |
| 20260905164534 | 17 | 282 | 12.9 | 19.3 | 0.00 | 0.00 | 0.00 | 61 | 1020.4 |
| 20260905163037 | 16 | 360 | 11.3 | 20.9 | 0.00 | 0.00 | 0.00 | 65 | 1020.2 |
| 20260905161550 | 16 | 355 | 8.0 | 17.7 | 0.00 | 0.00 | 0.00 | 65 | 1020.4 |
| 20260905160035 | 16 | 30 | 11.3 | 17.7 | 0.00 | 0.00 | 0.00 | 69 | 1020.3 |
| 20260905154535 | 15 | 348 | 12.9 | 17.7 | 0.00 | 0.00 | 0.00 | 74 | 1020.0 |
| 20260905153036 | 15 | 344 | 12.9 | 24.1 | 0.00 | 0.00 | 0.00 | 77 | 1020.1 |
| 20260905151535 | 13 | 336 | 12.9 | 20.9 | 0.00 | 0.00 | 0.00 | 84 | 1019.8 |
| 20260905150035 | 12 | 346 | 6.4 | 16.1 | 0.00 | 0.00 | 0.00 | 85 | 1020.0 |
| 20260905144536 | 12 | 346 | 9.7 | 16.1 | 0.00 | 0.00 | 0.00 | 87 | 1020.1 |
| 20260905143036 | 11 | 319 | 9.7 | 22.5 | 0.00 | 0.00 | 0.00 | 87 | 1020.2 |
| 20260905141536 | 11 | 360 | 14.5 | 27.4 | 0.00 | 0.00 | 0.00 | 86 | 1019.6 |
| 20260905140036 | 11 | 295 | 16.1 | 30.6 | 0.00 | 0.00 | 0.00 | 84 | 1019.5 |
| 20260905134535 | 11 | 269 | 17.7 | 29.0 | 0.00 | 0.00 | 0.00 | 78 | 1020.8 |
| 20260905133038 | 12 | 248 | 14.5 | 25.7 | 0.00 | 0.00 | 0.00 | 76 | 1020.8 |
| 20260905131534 | 11 | 288 | 9.7 | 14.5 | 0.00 | 0.00 | 0.00 | 79 | 1019.2 |
| 20260905130034 | 10 | 284 | 14.5 | 17.7 | 0.00 | 0.00 | 0.00 | 79 | 1018.5 |
| 20260905124536 | 10 | 360 | 11.3 | 16.1 | 0.00 | 0.00 | 0.00 | 78 | 1018.7 |
| 20260905123035 | 11 | 292 | 3.2 | 8.0 | 0.00 | 0.00 | 0.00 | 76 | 1019.3 |
| 20260905121534 | 11 | 258 | 9.7 | 19.3 | 0.00 | 0.00 | 0.00 | 75 | 1019.6 |
| 20260905120036 | 11 | 270 | 14.5 | 22.5 | 0.00 | 0.00 | 0.00 | 74 | 1019.3 |
| 20260905114537 | 11 | 259 | 14.5 | 20.9 | 0.00 | 0.00 | 0.00 | 73 | 1018.9 |
| 20260905113038 | 11 | 280 | 11.3 | 19.3 | 0.00 | 0.00 | 0.00 | 72 | 1018.6 |
| 20260905111535 | 11 | 254 | 11.3 | 16.1 | 0.00 | 0.00 | 0.00 | 72 | 1018.5 |
| 20260905110037 | 11 | 259 | 9.7 | 16.1 | 0.00 | 0.00 | 0.00 | 73 | 1018.4 |
| 20260905104540 | 10 | 304 | 6.4 | 12.9 | 0.00 | 0.00 | 0.00 | 76 | 1017.6 |
| 20260905103036 | 10 | 292 | 6.4 | 14.5 | 0.00 | 0.00 | 0.00 | 75 | 1017.8 |
| 20260905101540 | 10 | 292 | 11.3 | 14.5 | 0.00 | 0.00 | 0.00 | 72 | 1017.8 |